This is the latest recevied weather packets stored in our database for station/object SP9MUF-14. If no packets are shown the sender has not sent any weather packets the latest 10 day(s).
| Time | Temp. | Humidity | Pressure | Rain* | Wind** | Luminosity | Snow |
|---|---|---|---|---|---|---|---|
| 1787981851 | 15.56° C | 96% | 1013.9 hPa | 0 mm | - | 16 W/m² | - |
| 1787981549 | 15.56° C | 96% | 1014 hPa | 0 mm | - | 11 W/m² | - |
| 1787981247 | 15.56° C | 96% | 1013.9 hPa | 0 mm | - | 20 W/m² | - |
| 1787980945 | 15.56° C | 96% | 1014.1 hPa | 0 mm | - | 16 W/m² | - |
| 1787980643 | 15.56° C | 96% | 1014.1 hPa | 0 mm | - | 16 W/m² | - |
| 1787980341 | 15.56° C | 96% | 1014 hPa | 0 mm | - | 18 W/m² | - |
| 1787980038 | 15.56° C | 96% | 1014 hPa | 0 mm | - | 21 W/m² | - |
| 1787979736 | 15.56° C | 96% | 1014 hPa | 0 mm | - | 12 W/m² | - |
| 1787979434 | 15.56° C | 95% | 1013.9 hPa | 0 mm | - | 12 W/m² | - |
| 1787979132 | 15.56° C | 95% | 1013.9 hPa | 0 mm | - | 8 W/m² | - |
| 1787978830 | 15.56° C | 95% | 1014.2 hPa | 0 mm | - | 8 W/m² | - |
| 1787978528 | 15.56° C | 95% | 1014.3 hPa | 0.25 mm | - | 5 W/m² | - |
| 1787977924 | 15.56° C | 95% | 1014.3 hPa | 0.25 mm | - | 1 W/m² | - |
| 1787977622 | 15.56° C | 95% | 1014.2 hPa | 0.25 mm | - | 1 W/m² | - |
| 1787977017 | 15.56° C | 94% | 1014.3 hPa | 1.02 mm | - | 1 W/m² | - |
| 1787976413 | 15.56° C | 94% | 1014.2 hPa | 3.05 mm | - | 0 W/m² | - |
| 1787976111 | 15.56° C | 94% | 1014.2 hPa | 4.57 mm | - | 0 W/m² | - |
| 1787975809 | 15.56° C | 94% | 1014.2 hPa | 6.35 mm | - | 0 W/m² | - |
| 1787975507 | 15.56° C | 94% | 1014.2 hPa | 7.62 mm | - | 0 W/m² | - |
| 1787975205 | 15.56° C | 94% | 1014.1 hPa | 7.87 mm | - | 0 W/m² | - |
| 1787974903 | 15.56° C | 93% | 1013.9 hPa | 10.41 mm | - | 0 W/m² | - |
| 1787974601 | 15.56° C | 94% | 1013.7 hPa | 12.95 mm | - | 0 W/m² | - |
| 1787974298 | 15.56° C | 94% | 1013.5 hPa | 14.48 mm | - | 0 W/m² | - |
| 1787973996 | 15.56° C | 94% | 1013.5 hPa | 14.48 mm | - | 0 W/m² | - |
| 1787973694 | 15.56° C | 94% | 1013.5 hPa | 13.97 mm | - | 0 W/m² | - |
* Rain latest hour (hover to see other rain measurements)
** Current wind speed in m/s (hover to see current wind gust speed)